Location: Asheville, NC
(35.6000°N, 82.5500°W)
Time: 14:37:10
(UTC-04:00)

STARS - Pass Details

Date: 03 January 2018
Orbit: 624 x 642 km, 98.3° (Epoch: 20 April)

Event Time Altitude Azimuth Distance (km) Brightness Sun altitude
Rises 05:10:53 0° 146° (SE) 2,898 ? -29.6°
Reaches altitude 10° 05:13:12 10° 137° (SE) 1,993 ? -29.1°
Maximum altitude 05:17:08 35° 72° (ENE) 1,016 ? -28.3°
Enters shadow 05:18:42 26° 31° (NNE) 1,224 ? -28.0°
